Погода в Немеричах

Россия / Брянская область     53°50′46″N   34°00′07″E
темп.,
°C
ветер,
м/с
пор.,
м/с
влажн.,
%
обл.,
%
осадки,
мм/ч
давл.,
гПа
погр.,
м
13 апреля, вт
вт1300:00+10вюв3128997 0.0 1021317
03:00+9юв2889100 0.0 1021146
06:00+8ююв269292 0.0 102294
09:00+13юв3672100 0.0 1022224
12:00+18юв465392 0.0 10211033
15:00+19ююв58466 0.0 10201791
18:00+18ююв4951100 0.0 1019741
21:00+13ю247094 0.0 101985
14 апреля, ср
ср1400:00+11юв127978 0.0 101819
03:00+10юв2787100 0.0 1018198
06:00+10ююв2692100 0.0 1018271
09:00+10ююв378853 0.0 1018525
12:00+13ююз3569100 0.1 1018893
15:00+15ю2457100 0.3 10161217
18:00+14ююв1165100 0.1 101630
21:00+11вюв2784100 0.4 1017166
15 апреля, чт
чт1500:00+9вюв2287100 0.0 101643
03:00+10ю1184100 0.0 101518
06:00+9юв1188100 0.0 101510
09:00+10всв1288100 0.4 1015116
12:00+9вюв2793100 1.9 1015453
15:00+10всв258572 2.6 1015494
18:00+11ссв248682 0.1 1014252
21:00+8всв2492100 0.1 101456
16 апреля, пт
пт1600:00+7всв259492 0.1 101499
03:00+7всв2597100 0.1 1014113
06:00+7всв3995100 0.3 1014239
09:00+10в358794 0.5 1015393
12:00+11в248389 0.8 1015566
15:00+14вюв3666100 1.8 10141238
18:00+12юв2576100 1.0 1015232
21:00+9ююв2287100 1.1 101639
17 апреля, сб
сб1700:00+8ссв118661 0.0 101810
03:00+6юв119358 0.0 101812
06:00+5вюв00945 0.0 101910
09:00+9ссв1289100 0.2 1020302
12:00+10св3789100 0.1 1020690
15:00+12св41080100 0.1 1019971
18:00+14всв61274100 1.9 1018878
21:00+11в71487100 4.6 1021763